Location: Curtidor
(10.3472°N, 67.2917°W)
Time: 05:03:32
(UTC+00:00)

Delta 128 - Pass Details

Date: 13 June 2024
Orbit: 608 x 1210 km, 28.0° (Epoch: 21 July)

Event Time Altitude Azimuth Distance (km) Brightness Sun altitude
Rises 23:44:14 0° 232° (SW) 3,157 7.5 -12.6°
Reaches altitude 10° 23:46:34 10° 228° (SW) 2,314 6.8 -13.1°
Maximum altitude 23:51:59 58° 149° (SSE) 1,008 4.3 -14.3°
Drops below altitude 10° 23:58:26 10° 72° (ENE) 2,739 6.5 -15.7°
Enters shadow 23:58:40 - 71° (ENE) 2,819 6.5 -15.8°
